Regional Weather Roundup
Issued by NWS

Home | Current Version | Previous Version | Graphics & Text | Print | Product List | Glossary On
Versions: 1 2 3 4 5 6 7 8 9 10 11 12 13 14 15 16 17 18 19 20 21 22 23 24 25 26 27 28 29 30 31 32 33 34 35 36 37 38 39 40 41 42 43 44 45 46 47 48 49 50
000
ASUS43 KFSD 281102
RWRSD

WEATHER ROUNDUP FOR SOUTH DAKOTA
NATIONAL WEATHER SERVICE SIOUX FALLS SD
500 AM CST TUE FEB 28 2017

NOTE: "FAIR" INDICATES FEW OR NO CLOUDS BELOW 12,000 FEET WITH NO
SIGNIFICANT WEATHER AND/OR OBSTRUCTIONS TO VISIBILITY.


SDZ001>005-009-010-012>017-281200-
NORTHWEST AND NORTH CENTRAL SOUTH DAKOTA

CITY           SKY/WX    TMP DP  RH WIND       PRES   REMARKS
BUFFALO          N/A     20  17  88 NE15      29.61F WCI   6
FAITH            N/A     22  22 100 NE12      29.69F WCI  10
MOBRIDGE       CLOUDY    26  20  77 NE13      29.74F WCI  15
$$

SDZ012>016-024>037-041>051-057-063-072>074-281200-
SOUTHWEST AND SOUTH CENTRAL SOUTH DAKOTA

CITY           SKY/WX    TMP DP  RH WIND       PRES   REMARKS
RAPID CTY ARPT FOG       24  23  96 S7        29.64F VSB 1/2 WCI  16
PIERRE         CLOUDY    27  25  92 NE13      29.72F WCI  16
CUSTER         CLEAR     19   9  65 W12G23    29.56S WCI   7
ELLSWORTH AFB  FOG       24  24 100 S3        29.64R VSB 1/4
PHILIP         CLOUDY    26  25  96 NE6       29.72R WCI  19
PINE RIDGE     CLOUDY    27  27 100 S5        29.67S FOG     WCI  22
SPEARFISH      LGT SNOW  21  19  93 CALM      29.61S
WINNER         CLOUDY    33  31  92 N10       29.71S WCI  25
$$

SDZ004>011-016>023-039-040-281200-
NORTHEAST SOUTH DAKOTA

CITY           SKY/WX    TMP DP  RH WIND       PRES   REMARKS
ABERDEEN       CLOUDY    22  17  81 N16       29.78R WCI   8
WATERTOWN      LGT SNOW  26  24  92 NE12      29.71R FOG     WCI  16
BROOKINGS      CLOUDY    31  28  89 NE13      29.69R WCI  21
SISSETON         N/A     24  21  88 N12       29.78S WCI  13
$$

SDZ017-020-022-023-036>040-048>070-281200-
SOUTHEAST SOUTH DAKOTA

CITY           SKY/WX    TMP DP  RH WIND       PRES   REMARKS
SIOUX FALLS    CLOUDY    35  31  85 NE9       29.67R WCI  28
HURON          CLOUDY    31  31 100 N9        29.72R WCI  23
CHAMBERLAIN    CLOUDY    34  32  93 N7        29.71R WCI  28
MITCHELL       CLOUDY    32  30  92 NE5       29.68R WCI  27
YANKTON        CLOUDY    30  25  80 SW7       29.65R WCI  23
$$

ABBREVIATIONS USED IN REMARKS
   TC - TEMPERATURE IN CELSIUS
  WCI - WIND CHILL INDEX
   HX - HEAT INDEX
  VSB - VISIBILITY




USA.gov is the U.S. government's official web portal to all federal, state and local government web resources and services.